Temp
-4 -4 -4 -4 -4 -4 -5 -5 -5 -5 -5 -6 -6 -5 -5 -5 -5 -5 -5 -5 -5 -5 -5 -5 -5 -5 -5 -5 -5 -6 -6 -6 -6 -6 -6 -6 -6 -6 -6 -6 -6 -6 -6 -6 -6 -7 -7 -7 -7 -7 -7 -7 -7 -7 -7 -7 -7 -7 -7 -7 -7 -7 -7
-4 -4 -4 -4 -4 -4 -5 -5 -5 -5 -5 -6 -6 -5 -5 -5 -5 -5 -5 -5 -5 -5 -5 -5 -5 -5 -5 -6 -6 -6 -6 -6 -6 -6 -6 -6 -6 -6 -6 -6 -6 -6 -6 -7 -7 -7 -7 -7 -7 -7 -7 -7 -7 -7 -7 -7 -7 -7 -7 -7 -7 -7 -7
-4 -5 -4 -4 -4 -4 -5 -5 -5 -5 -6 -5 -6 -6 -6 -6 -6 -5 -5 -5 -5 -5 -5 -5 -5 -5 -6 -6 -6 -6 -6 -6 -6 -6 -6 -6 -6 -6 -6 -6 -6 -6 -7 -7 -7 -7 -7 -7 -7 -7 -7 -7 -7 -7 -7 -7 -7 -7 -7 -7 -7 -7 -7
-4 -5 -5 -4 -5 -5 -5 -5 -5 -6 -6 -5 -5 -6 -6 -6 -6 -6 -6 -5 -5 -5 -5 -5 -5 -5 -5 -6 -6 -6 -6 -6 -6 -6 -6 -6 -6 -6 -6 -6 -6 -7 -7 -7 -7 -7 -7 -7 -7 -7 -7 -7 -7 -7 -7 -7 -7 -7 -7 -7 -7 -7 -7
-4 -5 -5 -5 -5 -5 -5 -5 -5 -6 -5 -5 -5 -5 -5 -6 -5 -6 -6 -6 -6 -5 -5 -5 -5 -5 -6 -6 -6 -6 -6 -6 -6 -6 -6 -6 -6 -6 -6 -6 -6 -7 -7 -7 -7 -7 -7 -7 -7 -7 -7 -7 -7 -7 -7 -6 -7 -7 -7 -7 -7 -7 -7
-4 -5 -5 -5 -5 -5 -5 -6 -6 -6 -6 -5 -5 -5 -5 -5 -5 -6 -6 -6 -6 -6 -6 -6 -6 -6 -6 -6 -6 -6 -6 -6 -6 -6 -6 -6 -6 -6 -6 -6 -6 -7 -7 -7 -7 -7 -7 -7 -7 -7 -7 -7 -7 -7 -7 -7 -7 -7 -7 -7 -7 -7 -7
-5 -5 -5 -5 -5 -5 -5 -6 -6 -6 -6 -6 -6 -5 -5 -5 -5 -6 -6 -6 -6 -6 -6 -6 -6 -6 -6 -6 -6 -6 -6 -6 -6 -6 -6 -6 -6 -6 -6 -6 -6 -7 -7 -7 -7 -7 -7 -7 -7 -7 -7 -7 -7 -7 -7 -7 -7 -7 -8 -8 -8 -7 -7
-5 -5 -5 -5 -5 -6 -6 -6 -6 -6 -6 -6 -6 -6 -5 -5 -5 -6 -6 -6 -7 -6 -6 -6 -6 -6 -6 -6 -6 -6 -6 -6 -6 -5 -5 -5 -6 -6 -6 -6 -7 -7 -7 -7 -8 -8 -8 -8 -7 -7 -7 -7 -7 -7 -8 -8 -8 -8 -8 -8 -8 -8 -8
-5 -5 -5 -5 -5 -6 -6 -6 -6 -6 -6 -6 -6 -6 -6 -6 -6 -6 -6 -6 -7 -7 -7 -7 -7 -7 -6 -6 -6 -6 -6 -6 -5 -5 -5 -5 -6 -6 -6 -6 -7 -7 -7 -7 -8 -8 -8 -7 -7 -7 -7 -7 -8 -8 -8 -8 -8 -8 -8 -8 -8 -8 -8
-6 -6 -6 -5 -5 -6 -6 -6 -6 -6 -6 -6 -6 -6 -6 -6 -6 -6 -6 -6 -7 -7 -7 -7 -7 -7 -7 -6 -6 -6 -6 -6 -6 -6 -6 -6 -6 -6 -6 -7 -7 -7 -7 -7 -7 -7 -7 -7 -7 -7 -7 -8 -8 -8 -8 -8 -8 -8 -9 -8 -8 -8 -8
-6 -6 -6 -6 -5 -6 -6 -7 -6 -6 -6 -6 -6 -6 -7 -7 -6 -6 -6 -6 -7 -7 -7 -7 -7 -7 -7 -7 -6 -6 -6 -6 -6 -6 -6 -6 -6 -6 -7 -7 -7 -7 -7 -7 -7 -7 -7 -7 -7 -7 -8 -8 -8 -8 -8 -8 -8 -9 -9 -8 -8 -8 -8
-6 -6 -6 -6 -6 -6 -7 -7 -6 -6 -6 -6 -6 -6 -7 -6 -6 -6 -6 -6 -7 -7 -7 -7 -7 -7 -7 -7 -7 -6 -6 -6 -6 -6 -6 -6 -7 -7 -7 -7 -7 -7 -7 -7 -7 -7 -7 -7 -7 -8 -8 -8 -8 -8 -8 -8 -8 -9 -9 -8 -8 -8 -8
-6 -6 -5 -6 -6 -7 -7 -7 -7 -6 -6 -6 -6 -6 -6 -6 -6 -6 -6 -6 -7 -7 -7 -7 -7 -7 -7 -7 -7 -7 -7 -7 -7 -7 -7 -7 -7 -7 -7 -7 -7 -7 -7 -7 -7 -7 -7 -7 -8 -8 -8 -8 -8 -8 -8 -8 -8 -8 -9 -8 -8 -8 -8
-6 -6 -6 -6 -7 -7 -7 -7 -7 -7 -7 -6 -6 -6 -6 -6 -6 -6 -6 -6 -6 -7 -7 -7 -7 -7 -7 -7 -7 -7 -7 -7 -7 -7 -7 -7 -7 -7 -7 -7 -7 -7 -7 -7 -7 -8 -8 -8 -7 -7 -8 -8 -8 -8 -8 -8 -8 -8 -9 -8 -8 -8 -8
-6 -6 -6 -6 -6 -7 -7 -7 -7 -7 -7 -7 -6 -6 -6 -6 -6 -6 -6 -6 -6 -6 -7 -7 -7 -7 -7 -7 -7 -7 -7 -7 -7 -7 -7 -7 -7 -7 -7 -7 -7 -7 -7 -7 -8 -8 -8 -7 -7 -8 -8 -8 -8 -8 -8 -8 -8 -8 -9 -8 -8 -8 -8
-6 -7 -6 -6 -7 -7 -7 -7 -7 -7 -7 -7 -7 -6 -6 -6 -6 -6 -6 -5 -5 -6 -7 -7 -7 -7 -7 -7 -7 -7 -7 -7 -7 -7 -7 -8 -8 -8 -7 -7 -7 -7 -7 -8 -8 -8 -7 -7 -8 -8 -8 -8 -8 -8 -8 -8 -8 -9 -9 -9 -8 -8 -8
-7 -7 -7 -7 -7 -7 -7 -7 -7 -7 -7 -7 -7 -7 -6 -6 -6 -6 -6 -6 -5 -6 -6 -7 -7 -7 -7 -7 -7 -7 -7 -7 -7 -7 -7 -8 -8 -8 -8 -8 -8 -8 -8 -8 -8 -8 -7 -8 -8 -8 -8 -8 -9 -8 -8 -8 -8 -9 -9 -9 -9 -8 -8
-7 -7 -7 -7 -7 -7 -6 -6 -6 -6 -6 -7 -7 -7 -7 -7 -7 -6 -6 -6 -6 -6 -6 -6 -7 -7 -7 -7 -7 -7 -7 -7 -7 -7 -8 -8 -8 -8 -8 -8 -8 -8 -8 -8 -8 -8 -8 -8 -8 -8 -8 -9 -9 -9 -9 -9 -9 -9 -9 -9 -9 -8 -8
-7 -7 -7 -7 -7 -7 -7 -6 -6 -6 -6 -7 -7 -7 -7 -7 -7 -7 -6 -6 -6 -6 -6 -6 -6 -7 -7 -7 -7 -7 -7 -7 -7 -7 -8 -8 -8 -8 -8 -8 -8 -8 -8 -8 -8 -8 -8 -8 -8 -8 -8 -9 -9 -9 -9 -9 -9 -9 -9 -9 -9 -9 -8
-7 -7 -7 -7 -7 -7 -7 -7 -7 -7 -7 -7 -7 -7 -7 -7 -7 -7 -7 -6 -6 -6 -6 -6 -6 -6 -7 -7 -7 -7 -7 -7 -7 -7 -8 -8 -8 -8 -8 -8 -8 -8 -8 -8 -8 -8 -8 -8 -8 -8 -8 -8 -9 -9 -9 -9 -9 -9 -9 -9 -9 -9 -9
-7 -7 -7 -7 -7 -7 -7 -7 -7 -7 -7 -7 -7 -7 -7 -7 -7 -7 -7 -6 -6 -6 -6 -6 -6 -6 -6 -7 -7 -7 -7 -7 -7 -8 -8 -8 -8 -8 -8 -8 -8 -8 -8 -8 -8 -8 -8 -8 -8 -8 -8 -8 -8 -9 -9 -9 -9 -9 -9 -9 -9 -9 -9
-8 -8 -7 -7 -7 -7 -7 -7 -7 -7 -7 -7 -7 -7 -7 -7 -7 -7 -7 -7 -6 -6 -6 -6 -6 -6 -6 -7 -7 -7 -7 -7 -8 -8 -8 -8 -8 -8 -8 -8 -8 -8 -8 -8 -8 -8 -8 -8 -8 -8 -8 -8 -8 -9 -9 -9 -9 -9 -9 -10 -9 -9 -9
-8 -8 -8 -8 -8 -8 -8 -7 -7 -7 -7 -7 -7 -7 -7 -7 -7 -7 -7 -7 -6 -6 -6 -6 -7 -7 -6 -7 -7 -7 -7 -8 -8 -8 -8 -8 -8 -8 -8 -8 -8 -8 -8 -8 -8 -8 -8 -8 -8 -8 -8 -8 -9 -9 -9 -9 -9 -9 -9 -10 -9 -9 -9
-7 -7 -8 -8 -8 -8 -8 -8 -7 -7 -7 -7 -7 -7 -7 -7 -7 -7 -7 -7 -7 -7 -7 -7 -7 -7 -7 -7 -7 -7 -7 -8 -8 -8 -8 -8 -8 -8 -8 -8 -8 -8 -8 -8 -8 -8 -8 -8 -8 -8 -8 -9 -9 -9 -9 -9 -9 -9 -9 -9 -9 -9 -9
-7 -7 -8 -8 -8 -8 -8 -8 -8 -8 -7 -6 -6 -7 -7 -7 -7 -7 -7 -7 -7 -7 -7 -7 -7 -7 -7 -7 -7 -7 -7 -8 -8 -8 -8 -8 -8 -8 -8 -8 -8 -8 -8 -8 -8 -8 -8 -8 -8 -8 -8 -9 -9 -9 -9 -9 -9 -9 -9 -9 -9 -9 -9
-7 -7 -7 -8 -8 -8 -8 -8 -8 -8 -7 -6 -6 -6 -7 -7 -7 -7 -7 -7 -7 -7 -7 -7 -7 -7 -7 -7 -7 -7 -8 -8 -8 -8 -8 -8 -8 -8 -8 -8 -8 -8 -8 -8 -8 -8 -8 -8 -8 -8 -8 -9 -9 -9 -9 -9 -9 -9 -9 -9 -9 -9 -9
-7 -7 -7 -7 -8 -8 -8 -8 -8 -8 -7 -6 -6 -6 -6 -7 -7 -7 -7 -7 -7 -7 -7 -7 -7 -7 -7 -7 -7 -7 -8 -8 -8 -8 -8 -8 -8 -8 -8 -8 -8 -8 -8 -8 -8 -8 -8 -8 -8 -8 -8 -9 -9 -9 -9 -9 -9 -9 -9 -9 -9 -9 -9
-8 -7 -7 -7 -7 -7 -8 -8 -8 -8 -7 -7 -7 -7 -7 -7 -6 -5 -6 -7 -7 -7 -7 -7 -7 -7 -7 -7 -7 -8 -8 -8 -8 -8 -8 -8 -8 -8 -8 -8 -8 -8 -8 -8 -8 -8 -8 -8 -8 -8 -9 -9 -9 -9 -9 -9 -9 -9 -9 -9 -9 -9 -9
-8 -8 -8 -7 -7 -7 -7 -8 -8 -8 -8 -7 -7 -7 -8 -7 -6 -5 -6 -7 -7 -7 -7 -7 -7 -7 -7 -7 -7 -8 -8 -8 -8 -8 -8 -8 -8 -8 -8 -8 -8 -8 -8 -8 -8 -8 -8 -8 -9 -9 -9 -9 -9 -9 -9 -9 -9 -9 -9 -9 -9 -9 -9
-8 -8 -8 -8 -8 -7 -7 -7 -8 -8 -8 -8 -8 -8 -8 -8 -7 -6 -6 -7 -7 -7 -7 -7 -7 -7 -7 -7 -7 -8 -8 -8 -8 -8 -8 -8 -8 -8 -8 -8 -8 -8 -8 -8 -8 -8 -9 -9 -9 -9 -9 -9 -9 -9 -9 -9 -9 -9 -9 -9 -9 -9 -9
-9 -9 -8 -8 -8 -8 -7 -8 -8 -8 -8 -8 -8 -8 -8 -8 -8 -7 -7 -8 -8 -7 -7 -7 -7 -7 -7 -7 -7 -8 -8 -8 -8 -8 -8 -8 -8 -8 -8 -8 -8 -8 -8 -8 -8 -9 -9 -9 -9 -9 -9 -9 -9 -9 -9 -9 -9 -9 -9 -9 -9 -9 -9
-9 -9 -8 -9 -8 -8 -8 -8 -8 -8 -7 -7 -8 -8 -8 -8 -8 -8 -8 -8 -8 -8 -8 -8 -7 -7 -7 -7 -7 -7 -8 -8 -8 -8 -8 -8 -8 -8 -8 -8 -8 -8 -8 -8 -8 -9 -9 -8 -9 -9 -9 -9 -9 -9 -9 -9 -10 -10 -10 -10 -9 -9 -9
-8 -8 -8 -8 -8 -8 -8 -8 -8 -9 -8 -7 -7 -8 -8 -8 -8 -8 -8 -8 -8 -8 -8 -8 -7 -7 -7 -7 -7 -8 -8 -8 -8 -8 -8 -8 -8 -8 -8 -8 -8 -8 -8 -8 -9 -8 -8 -8 -9 -9 -9 -9 -9 -9 -9 -10 -10 -10 -10 -10 -9 -9 -9
-8 -8 -8 -8 -8 -8 -8 -8 -8 -9 -8 -7 -7 -7 -7 -7 -7 -7 -8 -8 -8 -8 -8 -8 -8 -7 -7 -8 -8 -8 -8 -8 -8 -8 -8 -8 -8 -8 -8 -8 -8 -8 -8 -8 -8 -8 -8 -9 -9 -9 -9 -9 -9 -9 -10 -10 -10 -10 -10 -9 -9 -9 -10
-7 -8 -8 -8 -8 -8 -8 -8 -8 -8 -8 -7 -7 -7 -7 -7 -7 -6 -7 -7 -8 -8 -8 -8 -8 -8 -8 -8 -8 -8 -8 -8 -8 -8 -8 -8 -8 -8 -8 -8 -8 -8 -8 -8 -8 -8 -9 -9 -9 -9 -9 -9 -9 -10 -10 -10 -10 -10 -10 -9 -9 -9 -10
-8 -8 -8 -8 -8 -8 -8 -8 -8 -7 -7 -7 -7 -7 -7 -7 -7 -6 -6 -6 -7 -7 -8 -7 -7 -8 -8 -8 -8 -8 -8 -8 -8 -8 -8 -8 -8 -8 -8 -8 -8 -8 -8 -8 -9 -9 -9 -9 -9 -10 -10 -10 -10 -10 -10 -10 -10 -10 -9 -9 -9 -10 -10
-8 -8 -8 -8 -8 -8 -8 -8 -8 -7 -7 -7 -7 -7 -7 -7 -7 -7 -6 -7 -7 -7 -7 -7 -7 -7 -8 -8 -8 -8 -8 -8 -8 -8 -8 -8 -8 -8 -8 -8 -8 -8 -8 -9 -9 -9 -9 -9 -10 -10 -10 -10 -10 -10 -10 -10 -10 -9 -9 -9 -10 -10 -10
-8 -8 -8 -8 -8 -8 -8 -8 -8 -7 -7 -7 -7 -7 -7 -7 -8 -8 -7 -7 -7 -7 -7 -7 -8 -8 -8 -8 -8 -8 -8 -8 -8 -8 -8 -8 -8 -8 -8 -8 -8 -8 -9 -9 -9 -9 -9 -9 -10 -10 -10 -10 -10 -10 -10 -10 -9 -9 -9 -10 -10 -10 -10
Height
5891 5892 5893 5894 5895 5898 5899 5900 5900 5901 5902 5903 5904 5905 5906 5906 5907 5908 5908 5909 5910 5911 5911 5911 5912 5913 5914 5915 5916 5917 5918 5919 5920 5920 5921 5922 5922 5923 5924 5924 5925 5925 5925 5925 5925 5924 5924 5923 5923 5922 5922 5921 5920 5920 5919 5917 5916 5915 5913 5911 5910 5909 5907
5887 5888 5889 5891 5893 5896 5897 5897 5897 5899 5900 5901 5902 5903 5904 5905 5905 5906 5906 5906 5907 5908 5909 5909 5909 5910 5911 5912 5913 5915 5916 5917 5918 5918 5919 5920 5920 5921 5922 5922 5923 5923 5923 5923 5923 5923 5923 5922 5921 5920 5920 5919 5919 5918 5916 5915 5914 5913 5911 5909 5908 5907 5906
5885 5886 5887 5889 5891 5892 5893 5894 5895 5896 5897 5898 5899 5901 5902 5903 5903 5903 5904 5904 5905 5906 5906 5906 5907 5907 5908 5910 5911 5912 5913 5914 5915 5916 5917 5917 5918 5919 5920 5920 5921 5921 5921 5921 5921 5921 5921 5920 5919 5918 5918 5917 5917 5916 5915 5913 5912 5910 5909 5908 5906 5905 5904
5882 5884 5886 5887 5888 5888 5889 5891 5893 5894 5895 5897 5898 5899 5900 5900 5901 5901 5902 5902 5902 5903 5903 5903 5904 5905 5906 5907 5908 5909 5910 5911 5912 5913 5914 5915 5916 5917 5918 5918 5919 5919 5919 5919 5919 5919 5919 5919 5918 5917 5916 5916 5915 5914 5913 5911 5909 5908 5907 5906 5905 5903 5901
5880 5882 5883 5884 5885 5886 5887 5889 5891 5892 5894 5895 5897 5897 5898 5898 5899 5899 5900 5900 5900 5900 5901 5901 5902 5902 5903 5905 5906 5907 5908 5908 5909 5911 5912 5913 5914 5915 5916 5916 5916 5917 5917 5918 5917 5917 5917 5917 5916 5916 5915 5914 5913 5912 5911 5909 5907 5906 5905 5904 5903 5901 5899
5879 5881 5882 5884 5884 5885 5886 5888 5890 5891 5893 5894 5895 5895 5896 5896 5897 5897 5898 5898 5898 5898 5898 5899 5900 5900 5901 5902 5903 5904 5905 5906 5907 5908 5909 5910 5911 5913 5913 5914 5914 5915 5915 5916 5915 5915 5914 5914 5914 5914 5913 5913 5912 5910 5909 5907 5906 5904 5903 5901 5900 5899 5897
5877 5879 5881 5883 5883 5883 5884 5886 5888 5890 5891 5892 5893 5894 5894 5894 5895 5895 5895 5896 5896 5896 5896 5896 5897 5898 5899 5900 5901 5902 5903 5904 5905 5905 5906 5908 5909 5910 5911 5911 5912 5913 5913 5914 5913 5913 5912 5912 5912 5912 5911 5910 5910 5908 5907 5905 5904 5902 5901 5899 5897 5896 5894
5873 5876 5878 5880 5880 5881 5882 5883 5885 5887 5888 5889 5891 5892 5892 5893 5893 5893 5893 5893 5894 5894 5894 5894 5895 5896 5896 5897 5899 5900 5901 5901 5902 5903 5904 5905 5907 5908 5908 5909 5910 5911 5911 5911 5911 5911 5911 5910 5910 5910 5909 5908 5908 5907 5905 5903 5901 5900 5898 5896 5895 5893 5892
5868 5871 5874 5876 5877 5878 5879 5880 5882 5884 5885 5886 5888 5890 5890 5891 5892 5891 5891 5891 5891 5892 5892 5892 5892 5893 5894 5895 5896 5897 5899 5900 5901 5902 5903 5904 5904 5905 5906 5907 5908 5909 5909 5909 5908 5908 5909 5909 5908 5908 5907 5907 5906 5905 5903 5901 5899 5897 5895 5893 5892 5890 5889
5864 5866 5869 5871 5873 5875 5876 5877 5879 5880 5882 5883 5885 5887 5888 5889 5890 5890 5890 5890 5890 5890 5889 5889 5890 5891 5892 5893 5894 5895 5896 5898 5899 5900 5901 5902 5902 5903 5904 5905 5906 5907 5907 5907 5907 5907 5907 5907 5906 5906 5905 5905 5904 5902 5901 5899 5896 5894 5892 5890 5888 5886 5885
5861 5862 5864 5866 5869 5872 5872 5873 5875 5876 5879 5881 5882 5883 5885 5886 5887 5888 5888 5888 5888 5888 5888 5887 5888 5888 5889 5890 5892 5893 5894 5895 5897 5898 5899 5899 5900 5901 5902 5902 5903 5904 5904 5904 5905 5905 5905 5905 5905 5904 5903 5902 5901 5899 5898 5896 5894 5892 5890 5888 5886 5884 5882
5858 5858 5859 5862 5865 5868 5869 5869 5871 5873 5875 5877 5879 5880 5882 5884 5885 5885 5886 5886 5887 5886 5886 5886 5886 5886 5887 5888 5889 5891 5892 5893 5895 5896 5896 5897 5898 5898 5899 5900 5901 5901 5902 5902 5903 5903 5903 5903 5903 5902 5902 5900 5899 5897 5895 5894 5892 5890 5887 5885 5883 5881 5879
5855 5855 5856 5858 5861 5864 5865 5866 5868 5870 5872 5874 5876 5877 5879 5881 5882 5882 5883 5884 5884 5884 5884 5884 5884 5884 5885 5886 5887 5888 5889 5891 5892 5893 5894 5895 5895 5896 5897 5898 5898 5899 5899 5900 5900 5901 5901 5901 5901 5900 5899 5898 5896 5894 5892 5891 5889 5886 5884 5882 5879 5878 5876
5853 5853 5853 5855 5858 5859 5862 5864 5865 5866 5868 5870 5872 5874 5876 5877 5879 5879 5880 5881 5882 5882 5882 5882 5882 5883 5883 5883 5884 5885 5887 5888 5889 5890 5891 5892 5893 5893 5894 5895 5896 5897 5897 5897 5897 5898 5898 5899 5898 5897 5896 5894 5893 5891 5889 5887 5886 5883 5881 5878 5876 5874 5873
5850 5851 5851 5853 5855 5857 5859 5861 5863 5864 5865 5867 5869 5870 5872 5874 5876 5876 5877 5878 5879 5879 5879 5879 5880 5881 5881 5881 5882 5883 5884 5885 5886 5887 5888 5889 5890 5891 5892 5893 5894 5894 5895 5895 5895 5895 5895 5895 5894 5893 5892 5891 5889 5887 5885 5884 5882 5881 5878 5875 5873 5871 5870
5846 5847 5849 5851 5853 5855 5857 5858 5860 5861 5862 5864 5865 5867 5869 5871 5873 5874 5874 5875 5876 5877 5877 5877 5877 5878 5879 5879 5879 5880 5881 5882 5883 5884 5885 5886 5887 5888 5889 5890 5891 5892 5892 5893 5892 5892 5892 5891 5890 5890 5888 5887 5886 5884 5883 5881 5879 5877 5875 5872 5870 5868 5867
5843 5844 5846 5849 5851 5852 5854 5855 5856 5858 5859 5861 5862 5864 5866 5868 5870 5871 5871 5872 5873 5874 5874 5874 5874 5875 5876 5877 5877 5877 5878 5879 5880 5882 5883 5884 5885 5885 5886 5887 5888 5889 5889 5890 5889 5889 5889 5888 5887 5886 5885 5883 5882 5881 5880 5879 5876 5874 5871 5869 5867 5864 5863
5839 5840 5842 5844 5846 5848 5850 5851 5852 5853 5856 5858 5859 5860 5862 5864 5866 5867 5868 5869 5870 5871 5870 5870 5871 5872 5873 5874 5874 5874 5875 5876 5877 5879 5880 5881 5882 5882 5883 5884 5885 5885 5885 5886 5886 5885 5885 5884 5883 5883 5881 5880 5879 5878 5877 5875 5873 5871 5868 5865 5863 5861 5859
5834 5836 5838 5840 5841 5844 5846 5847 5848 5849 5852 5854 5855 5855 5856 5859 5861 5863 5864 5865 5866 5866 5866 5867 5868 5869 5870 5871 5871 5871 5872 5873 5874 5876 5877 5878 5879 5879 5880 5881 5881 5882 5882 5882 5882 5881 5881 5880 5879 5879 5878 5877 5876 5875 5873 5872 5870 5867 5864 5862 5860 5857 5856
5830 5832 5833 5834 5836 5838 5840 5841 5843 5845 5846 5848 5850 5851 5851 5853 5856 5858 5859 5860 5861 5862 5863 5864 5865 5866 5866 5867 5868 5869 5869 5869 5871 5872 5873 5875 5875 5876 5877 5877 5877 5878 5878 5878 5878 5877 5877 5876 5875 5875 5874 5873 5872 5871 5869 5868 5865 5863 5860 5858 5856 5853 5851
5827 5828 5828 5829 5831 5833 5835 5837 5838 5840 5841 5843 5845 5846 5846 5848 5850 5853 5854 5855 5856 5858 5859 5860 5861 5862 5863 5863 5864 5865 5865 5866 5867 5869 5870 5871 5872 5872 5873 5873 5874 5874 5874 5874 5874 5873 5873 5872 5871 5871 5870 5869 5868 5866 5865 5863 5861 5859 5856 5854 5852 5849 5847
5822 5824 5825 5825 5826 5828 5830 5832 5833 5835 5837 5839 5840 5841 5842 5843 5845 5847 5849 5851 5852 5853 5855 5856 5857 5858 5859 5859 5860 5861 5862 5862 5863 5865 5866 5867 5868 5868 5869 5869 5870 5870 5870 5870 5870 5869 5869 5868 5867 5866 5865 5864 5863 5862 5860 5859 5857 5855 5853 5850 5848 5845 5843
5816 5819 5821 5821 5821 5822 5824 5825 5827 5830 5832 5834 5834 5836 5838 5839 5841 5842 5844 5846 5848 5849 5850 5851 5852 5854 5855 5856 5856 5857 5858 5859 5859 5861 5862 5863 5864 5864 5865 5865 5866 5866 5866 5866 5865 5865 5865 5864 5863 5862 5861 5860 5859 5857 5856 5855 5853 5851 5849 5846 5844 5841 5839
5810 5813 5815 5816 5816 5816 5817 5818 5819 5823 5826 5828 5829 5831 5833 5834 5836 5837 5839 5841 5843 5844 5845 5846 5848 5849 5851 5852 5852 5853 5854 5855 5856 5857 5858 5859 5859 5860 5860 5861 5862 5862 5862 5862 5862 5861 5861 5860 5859 5857 5856 5855 5854 5853 5851 5850 5849 5847 5844 5842 5839 5837 5835
5803 5807 5810 5811 5811 5811 5811 5811 5812 5814 5818 5821 5824 5825 5827 5829 5830 5832 5834 5836 5837 5838 5840 5841 5843 5845 5846 5848 5848 5849 5850 5851 5852 5853 5854 5855 5855 5856 5856 5857 5858 5858 5858 5858 5858 5857 5857 5856 5855 5854 5852 5851 5850 5848 5846 5845 5844 5842 5840 5838 5836 5833 5831
5795 5798 5801 5803 5804 5806 5805 5804 5804 5805 5809 5815 5819 5820 5820 5823 5824 5826 5828 5830 5830 5832 5834 5836 5839 5840 5842 5843 5844 5844 5845 5847 5848 5849 5850 5851 5851 5851 5852 5853 5853 5854 5854 5854 5854 5854 5853 5852 5851 5850 5848 5847 5845 5844 5842 5841 5840 5838 5835 5833 5831 5829 5827
5789 5790 5792 5793 5795 5797 5798 5799 5799 5799 5801 5807 5813 5815 5814 5816 5818 5820 5822 5822 5823 5825 5828 5831 5833 5835 5836 5837 5839 5840 5841 5843 5844 5845 5846 5847 5847 5847 5848 5848 5848 5849 5850 5850 5850 5849 5848 5847 5846 5845 5844 5842 5840 5838 5838 5837 5835 5833 5831 5829 5827 5825 5823
5781 5782 5784 5787 5788 5790 5791 5793 5794 5794 5795 5798 5802 5805 5806 5808 5811 5814 5815 5815 5816 5819 5822 5823 5826 5828 5830 5832 5834 5834 5836 5838 5840 5841 5842 5842 5843 5843 5843 5844 5844 5844 5845 5845 5845 5844 5843 5842 5842 5841 5840 5836 5832 5831 5832 5832 5830 5828 5826 5825 5823 5820 5819
5775 5777 5778 5781 5783 5784 5784 5785 5787 5788 5789 5790 5791 5793 5796 5799 5802 5805 5807 5808 5810 5812 5814 5816 5819 5822 5825 5827 5828 5829 5831 5833 5835 5836 5837 5837 5838 5839 5839 5840 5840 5840 5840 5840 5840 5838 5837 5837 5837 5837 5835 5831 5827 5826 5827 5827 5825 5823 5821 5820 5818 5816 5814
5770 5773 5774 5776 5778 5778 5777 5778 5778 5778 5778 5779 5781 5783 5785 5789 5792 5795 5798 5801 5803 5805 5807 5810 5813 5816 5819 5821 5823 5824 5826 5828 5830 5831 5831 5832 5833 5834 5835 5835 5835 5835 5836 5835 5834 5833 5833 5833 5832 5831 5829 5827 5825 5824 5822 5821 5820 5818 5816 5814 5812 5810 5808
5765 5767 5768 5769 5771 5772 5772 5771 5771 5770 5769 5768 5769 5773 5776 5780 5783 5786 5789 5792 5795 5798 5801 5804 5807 5810 5814 5816 5818 5820 5821 5823 5825 5825 5826 5827 5828 5829 5829 5829 5830 5830 5830 5829 5829 5829 5829 5828 5827 5825 5824 5823 5821 5820 5818 5816 5814 5812 5810 5808 5806 5805 5803
5760 5761 5762 5763 5764 5765 5766 5766 5766 5765 5764 5763 5763 5765 5769 5771 5773 5776 5779 5783 5786 5790 5794 5797 5800 5804 5807 5810 5812 5814 5816 5817 5819 5819 5820 5821 5823 5823 5824 5824 5825 5825 5825 5825 5825 5825 5824 5823 5821 5820 5819 5818 5816 5814 5812 5810 5808 5806 5805 5803 5801 5799 5797
5755 5755 5756 5756 5757 5758 5759 5760 5760 5758 5758 5760 5760 5759 5761 5762 5762 5764 5768 5772 5777 5781 5785 5789 5793 5797 5800 5803 5806 5808 5809 5811 5812 5814 5815 5817 5817 5818 5819 5819 5819 5820 5819 5819 5820 5819 5818 5817 5816 5815 5814 5812 5811 5809 5806 5804 5802 5800 5799 5797 5795 5794 5792
5749 5749 5750 5750 5752 5753 5752 5754 5755 5751 5751 5756 5757 5756 5757 5758 5758 5759 5762 5764 5768 5773 5778 5782 5785 5789 5792 5796 5799 5801 5803 5804 5806 5808 5810 5811 5812 5813 5813 5813 5814 5814 5814 5814 5814 5813 5813 5812 5810 5809 5808 5806 5805 5803 5800 5798 5796 5795 5794 5792 5790 5788 5786
5742 5743 5744 5745 5747 5748 5747 5748 5748 5746 5746 5750 5752 5751 5751 5752 5753 5756 5759 5759 5761 5765 5770 5774 5776 5780 5785 5789 5792 5794 5797 5799 5801 5803 5804 5805 5806 5807 5807 5807 5808 5808 5808 5808 5808 5807 5807 5806 5804 5802 5801 5800 5798 5796 5794 5792 5791 5789 5788 5786 5784 5782 5781
5736 5737 5739 5740 5741 5742 5741 5742 5742 5741 5741 5742 5742 5740 5739 5740 5744 5749 5753 5754 5756 5757 5760 5763 5766 5771 5777 5782 5785 5788 5791 5793 5795 5796 5797 5799 5800 5800 5801 5801 5801 5802 5802 5802 5801 5801 5801 5800 5798 5796 5794 5792 5790 5789 5787 5786 5785 5784 5782 5780 5778 5776 5775
5731 5732 5734 5735 5735 5736 5736 5737 5736 5734 5732 5731 5732 5733 5731 5731 5736 5742 5747 5751 5754 5755 5757 5760 5762 5765 5771 5776 5779 5782 5785 5787 5788 5789 5791 5792 5793 5794 5795 5795 5796 5796 5796 5796 5795 5795 5795 5793 5791 5790 5788 5785 5783 5781 5781 5780 5779 5778 5776 5774 5773 5771 5769
5726 5727 5728 5729 5730 5732 5731 5730 5727 5724 5721 5722 5726 5728 5727 5726 5730 5738 5744 5748 5751 5754 5755 5757 5758 5762 5767 5771 5774 5777 5779 5780 5782 5784 5785 5786 5788 5789 5789 5790 5790 5791 5791 5790 5790 5789 5788 5787 5785 5784 5782 5780 5778 5776 5775 5774 5773 5771 5770 5768 5767 5765 5764
Wind_Speed
23 22 21 21 19 18 18 18 17 16 14 14 15 16 18 19 20 20 20 22 22 21 19 18 18 18 18 18 18 18 17 17 16 17 17 16 16 16 14 13 13 13 12 12 12 13 13 14 14 14 15 17 18 19 20 21 21 21 22 23 23 25 26
21 22 21 20 18 18 18 19 18 17 16 15 15 16 17 17 18 18 19 20 21 21 19 19 19 19 20 21 21 20 19 19 18 18 18 18 18 17 15 14 13 13 12 12 13 13 14 14 16 16 17 18 19 20 21 22 22 22 22 24 25 27 27
19 22 22 21 19 18 18 19 19 18 18 18 16 16 16 16 17 16 16 17 18 19 18 18 19 20 21 22 22 22 21 21 20 20 20 19 19 18 16 15 14 13 12 12 13 13 14 14 15 17 19 20 20 21 21 22 23 22 22 24 26 28 29
20 23 24 22 19 17 16 18 20 20 21 20 18 17 17 17 16 15 14 15 16 17 17 18 19 20 21 22 22 23 23 22 22 22 21 21 20 19 17 15 14 12 11 12 13 14 14 14 15 17 19 19 20 20 21 22 23 23 23 25 26 28 30
20 21 24 21 18 16 14 16 20 22 23 22 20 20 19 19 18 16 14 14 14 14 15 15 16 17 18 19 20 21 22 22 22 22 22 21 20 18 17 15 13 11 11 12 13 14 15 15 16 16 17 18 19 19 20 22 24 25 26 27 27 28 29
19 19 21 19 17 18 15 15 17 20 22 22 22 22 21 20 19 17 15 14 13 13 12 12 13 14 15 16 17 18 19 19 19 20 20 20 18 17 16 14 11 10 10 11 13 14 15 16 17 16 17 18 18 20 21 23 24 26 28 29 29 29 29
21 20 21 19 18 19 17 15 16 18 21 22 22 23 23 21 19 18 16 14 12 12 11 10 11 12 13 14 15 15 16 16 16 17 17 16 15 15 14 12 9 9 10 11 13 14 15 16 17 18 18 19 20 21 23 24 25 27 28 29 30 30 30
29 27 22 20 20 18 16 16 16 17 20 23 23 23 23 23 20 18 16 13 12 11 10 10 10 11 11 12 13 13 13 13 13 13 13 12 12 12 11 9 8 8 9 11 13 14 14 16 17 19 19 20 22 23 24 26 27 29 30 31 32 32 32
34 30 24 22 23 20 17 17 18 19 20 23 25 24 24 23 20 18 17 15 13 11 10 10 10 10 11 11 12 13 13 12 11 10 10 10 10 10 9 8 7 8 9 12 14 15 16 16 17 19 20 22 23 23 24 26 29 32 34 35 36 35 35
33 28 28 28 27 24 21 20 22 23 21 22 27 25 22 21 20 18 17 16 14 12 10 10 10 10 11 11 11 12 12 12 10 9 9 9 10 9 8 8 8 8 10 12 14 15 16 17 18 20 21 22 22 23 24 27 31 34 36 37 38 38 37
29 27 31 32 28 25 24 24 25 24 21 22 27 26 23 22 21 19 18 16 14 13 12 11 10 10 11 11 12 12 12 11 10 10 10 10 10 9 9 8 9 10 11 12 13 15 16 17 19 20 21 21 22 23 26 28 31 34 36 37 38 38 37
27 29 31 30 27 26 26 26 27 25 23 23 27 29 27 24 22 21 20 18 16 15 14 13 10 10 11 12 13 13 13 12 11 11 11 11 11 10 9 9 10 10 12 13 14 15 16 17 18 18 19 19 21 24 27 29 31 34 37 38 38 38 36
29 28 28 28 27 27 27 27 28 28 27 26 27 31 30 27 25 25 23 20 18 17 16 15 12 10 10 12 14 14 14 13 12 12 12 12 11 10 9 9 10 11 13 14 16 16 16 16 16 17 18 20 22 25 28 30 32 35 38 39 39 38 36
27 26 27 29 28 27 26 27 30 31 31 30 29 31 32 30 28 27 25 23 21 19 18 16 14 12 11 12 14 15 15 14 14 14 13 12 11 10 10 10 11 12 13 15 16 16 14 14 16 17 19 21 24 27 30 32 33 35 38 40 40 39 36
27 25 26 29 29 29 31 32 34 36 36 34 31 31 31 30 28 27 27 25 23 21 20 18 17 14 12 12 13 15 16 16 16 15 13 12 11 11 11 12 12 12 12 14 14 14 15 16 18 20 21 24 26 30 32 34 34 36 39 40 40 39 36
31 28 27 29 30 33 37 38 38 39 37 36 34 31 30 29 27 28 29 27 25 23 22 20 18 16 13 12 14 17 18 18 16 14 12 12 12 12 12 12 13 12 12 12 13 15 17 19 20 22 24 26 28 30 32 34 35 37 40 41 40 39 36
35 35 33 34 37 40 42 42 41 40 37 36 36 34 32 30 30 30 31 30 27 25 24 22 20 17 15 13 15 18 19 18 17 14 13 14 14 14 14 14 14 13 13 13 15 18 19 21 22 24 25 27 29 31 32 34 36 38 40 42 41 40 36
38 40 41 42 43 44 44 44 43 41 37 35 37 38 35 33 33 33 32 31 29 27 27 25 22 19 17 16 17 20 20 18 17 15 15 15 15 16 16 16 15 15 16 17 18 20 21 23 25 26 27 28 30 32 34 34 36 39 41 43 43 40 36
41 43 44 45 45 44 44 45 45 43 41 39 39 40 38 35 35 34 33 31 31 30 29 28 24 21 19 18 18 20 20 19 17 17 16 16 17 18 17 17 16 17 18 19 20 22 24 25 27 28 29 31 32 34 35 35 37 40 42 44 43 40 36
41 44 46 46 45 46 46 48 48 47 47 46 44 42 40 37 36 36 35 34 33 32 31 30 28 24 22 21 19 20 21 20 18 17 17 17 18 18 18 17 17 18 19 21 22 24 26 28 29 31 32 33 34 35 36 37 39 41 43 44 44 41 37
39 40 43 44 44 44 44 45 48 48 47 45 43 42 41 40 39 39 38 37 36 34 32 31 30 27 25 24 21 20 21 21 19 18 18 19 20 19 18 18 19 19 20 22 23 25 27 30 32 33 34 35 36 38 39 40 41 43 44 44 44 42 39
40 39 40 42 45 44 41 42 45 45 43 40 39 39 41 42 41 42 41 38 37 36 34 33 32 29 28 26 23 21 21 21 20 20 20 21 20 20 20 20 20 21 22 24 26 28 30 32 34 36 37 37 38 40 41 42 43 44 44 45 45 43 40
46 44 41 41 44 44 42 43 45 44 42 41 40 40 43 45 45 45 44 40 38 37 36 35 33 32 30 27 25 23 22 21 21 21 21 21 20 21 22 22 22 24 25 27 29 31 33 34 36 38 39 39 41 42 43 44 45 44 44 46 46 44 41
54 51 46 43 46 47 46 47 48 47 46 44 43 43 44 46 47 47 45 42 39 39 39 37 36 34 33 29 27 26 24 23 23 22 21 21 21 23 24 24 25 26 28 30 32 34 36 37 39 40 41 41 43 44 45 46 45 43 43 46 46 44 41
55 55 54 49 48 50 51 51 52 53 51 47 45 44 45 47 48 47 45 42 41 40 40 40 39 37 36 33 30 29 28 26 24 23 23 23 24 26 27 26 27 29 31 33 35 37 39 41 42 43 44 45 45 46 46 47 46 43 43 45 45 43 41
45 49 56 58 56 55 56 56 56 59 59 54 47 44 44 44 44 43 42 42 43 42 40 41 41 40 39 36 33 32 31 28 26 25 24 26 28 30 30 30 31 32 34 35 37 39 42 44 45 46 46 48 49 49 48 47 45 44 45 45 44 43 41
40 41 47 57 63 64 62 60 60 64 66 60 54 50 48 47 46 45 45 46 48 46 42 42 42 43 43 39 36 35 33 31 29 27 26 28 31 32 33 34 36 37 37 38 40 42 44 46 48 48 49 53 55 51 48 47 46 45 46 45 44 43 41
43 42 41 44 54 66 70 66 65 67 68 65 61 59 58 56 54 52 53 53 53 50 47 46 44 46 46 41 37 37 35 32 30 29 29 31 33 34 35 37 39 40 40 41 43 44 46 49 50 49 52 56 53 47 44 45 46 46 47 46 44 43 42
46 46 44 40 41 54 68 72 69 68 68 68 67 64 63 61 58 55 55 54 54 52 51 50 47 46 46 43 39 39 36 33 31 31 32 35 35 36 38 40 41 42 42 43 44 47 49 51 49 49 50 51 45 40 41 45 46 47 48 47 45 44 43
51 48 47 44 39 42 55 69 74 73 71 70 69 68 65 61 60 59 55 52 53 54 51 50 49 48 47 44 41 40 37 33 33 34 36 37 38 38 40 42 43 43 43 44 46 49 50 48 47 48 49 48 44 41 43 46 47 48 49 47 45 45 44
56 53 50 49 45 42 45 57 70 76 76 74 73 70 66 60 58 58 54 50 53 54 52 51 51 49 47 45 43 41 38 34 35 38 40 40 40 41 42 43 43 43 44 46 49 50 49 46 46 48 50 49 48 47 47 48 48 49 49 47 45 45 44
59 58 56 53 52 50 48 50 56 63 65 65 64 63 61 57 55 54 52 51 54 54 51 51 52 50 48 46 43 40 37 37 39 42 43 42 43 43 43 43 43 44 47 48 50 50 48 47 48 49 49 51 51 51 51 51 50 49 47 45 44 44 44
58 61 61 59 56 56 55 53 54 58 58 55 54 56 57 56 55 55 54 53 55 55 52 51 53 52 49 45 42 40 39 40 42 43 42 43 43 43 43 44 45 46 49 50 50 50 49 48 49 50 50 53 54 54 55 53 49 46 45 43 43 43 43
53 56 60 60 58 57 56 53 55 60 60 53 48 50 55 56 55 54 55 55 55 53 51 51 52 52 49 45 42 42 42 42 42 42 42 42 43 43 45 46 47 48 50 50 50 51 50 49 50 51 53 54 55 56 56 50 43 42 43 42 43 43 43
51 51 53 55 56 57 57 54 54 58 57 49 44 46 54 59 56 50 49 53 56 53 48 50 51 48 45 44 43 43 41 40 40 41 42 43 44 45 46 47 48 49 50 51 52 53 52 51 52 53 55 56 58 58 53 45 40 41 42 42 43 42 41
51 48 47 48 51 54 56 56 55 54 52 49 47 47 53 60 60 52 45 47 53 54 51 51 51 47 43 42 42 41 40 39 40 42 43 45 45 46 47 49 50 50 50 52 54 53 52 52 53 54 57 60 61 55 47 41 40 42 42 42 41 41 41
48 46 44 44 47 50 52 54 55 56 57 56 51 47 49 55 58 55 47 43 46 50 50 48 45 41 40 41 40 39 39 40 41 44 45 46 46 47 49 50 50 50 52 53 52 49 49 51 53 54 56 56 51 43 38 38 41 42 42 41 40 41 42
46 45 43 43 44 45 47 52 56 59 61 59 52 46 45 48 52 52 48 43 41 42 41 39 35 34 37 40 40 40 41 42 44 46 46 47 48 48 49 50 52 53 54 52 48 46 48 51 54 54 53 48 41 36 37 39 40 41 41 41 41 42 42
Wind_Direction
238 237 235 235 235 232 234 235 235 238 238 241 250 254 253 252 249 245 241 242 245 245 244 243 243 243 243 241 240 241 244 248 252 255 257 257 258 262 271 278 283 286 285 280 278 283 292 298 300 301 304 310 316 321 324 324 325 328 330 332 334 334 333
235 236 235 236 237 234 230 227 230 235 235 239 248 250 248 247 246 244 240 240 242 244 244 244 244 243 243 244 244 244 245 246 249 253 255 255 256 261 269 275 280 283 282 277 277 282 290 295 298 302 307 312 317 321 323 323 325 330 332 333 333 334 333
235 234 235 235 239 240 233 226 228 233 236 238 240 241 241 241 243 243 241 240 240 241 241 241 240 241 242 244 246 246 246 246 248 250 252 254 257 261 268 273 277 280 280 276 277 283 288 292 297 303 309 314 318 321 322 323 326 330 332 332 332 332 332
239 236 237 234 236 240 235 227 226 232 238 239 236 234 235 236 238 239 239 238 237 238 238 238 238 239 241 243 245 247 247 247 247 248 250 254 258 262 266 271 274 275 275 275 278 283 286 290 297 303 309 314 318 320 320 323 326 330 331 331 330 330 329
244 240 237 231 230 234 233 230 230 235 240 242 242 239 237 237 238 236 234 233 233 234 235 237 239 240 242 243 244 246 248 248 248 249 251 254 257 261 264 267 270 269 267 271 277 282 285 290 297 303 309 313 316 317 319 323 326 328 329 329 328 326 324
238 233 230 224 224 226 223 227 234 240 244 246 250 249 244 242 241 236 231 228 228 230 232 235 238 240 241 242 243 245 247 249 250 250 251 253 255 258 259 261 261 260 262 268 273 279 286 293 298 304 309 313 315 317 320 323 325 325 325 326 325 322 320
249 245 234 221 219 222 218 219 229 241 247 248 251 255 255 251 245 237 230 225 222 224 228 232 235 238 240 241 241 242 245 246 246 247 248 250 252 252 251 249 249 254 261 267 271 277 285 293 299 303 307 311 315 318 321 322 322 323 323 324 323 321 318
269 268 248 220 210 218 224 225 230 241 251 254 255 260 264 258 248 242 234 224 221 218 219 226 233 237 240 243 243 241 242 242 240 241 241 242 241 238 237 238 242 253 262 268 273 278 284 292 298 302 306 310 315 318 321 322 324 326 326 325 323 322 319
270 269 256 230 215 221 234 236 239 244 251 256 255 256 260 256 252 249 239 228 223 217 216 223 230 236 239 242 245 243 241 240 236 232 230 227 226 229 232 236 241 250 259 266 273 279 286 293 298 301 305 309 314 318 321 325 329 330 330 327 324 322 320
270 268 261 246 231 228 234 238 242 245 248 252 249 246 248 251 253 252 242 233 229 223 222 224 226 235 237 237 242 244 242 240 234 226 222 221 222 227 235 240 241 245 253 260 269 278 287 293 296 299 304 310 315 320 325 329 331 332 331 328 325 323 322
266 261 255 249 240 235 236 240 245 246 247 246 241 237 237 243 250 251 243 237 234 232 232 229 225 233 237 236 237 238 238 238 232 223 221 223 225 228 234 241 243 244 250 257 266 277 284 290 294 298 304 311 316 321 326 330 331 332 331 329 327 324 323
249 247 245 239 234 232 235 243 248 250 252 247 237 232 232 238 244 247 243 238 235 238 239 235 228 231 238 237 234 233 233 233 230 225 223 225 230 234 234 236 241 247 255 262 269 275 281 286 291 297 304 310 316 320 324 327 330 331 330 329 328 325 324
231 234 235 223 220 227 233 243 249 252 254 251 239 232 231 234 238 242 244 240 237 238 241 239 233 231 239 241 238 235 232 231 232 229 226 228 232 235 232 233 242 253 263 269 272 276 281 287 291 297 304 309 314 319 322 325 328 329 329 328 327 326 326
230 234 228 215 216 227 234 240 245 249 253 252 243 235 234 235 238 242 244 243 239 237 239 242 238 233 241 245 243 240 235 232 232 232 232 230 230 230 231 237 246 255 264 270 274 280 285 292 297 301 306 310 315 320 323 325 326 327 327 327 326 326 324
239 237 231 222 220 227 232 233 237 244 250 253 247 241 238 240 243 246 248 250 248 241 237 241 241 236 240 248 248 245 240 235 234 234 233 228 225 229 235 242 249 253 260 267 275 284 292 298 303 308 311 314 318 321 323 325 325 326 326 325 324 323 321
237 230 232 231 227 229 232 235 239 242 245 249 248 242 239 242 247 248 250 255 256 250 242 240 241 238 241 252 255 248 241 238 236 233 228 224 226 233 238 244 250 254 258 265 277 288 295 302 307 311 315 318 319 320 322 323 324 325 325 324 323 321 320
237 231 228 227 227 229 233 237 241 241 241 244 246 243 238 240 244 246 248 254 261 260 251 243 240 240 242 250 255 251 244 240 239 231 221 223 229 235 242 247 253 258 264 273 283 291 296 301 306 311 316 318 318 319 321 323 323 325 325 324 322 319 319
229 233 233 230 230 232 236 240 244 245 245 245 245 246 244 241 241 245 249 256 263 264 257 248 243 240 241 247 252 251 247 242 239 230 220 222 232 240 246 251 256 264 273 281 288 293 297 301 306 310 314 315 315 317 320 323 323 324 324 323 321 318 317
226 230 235 236 237 238 240 244 248 249 249 247 245 248 249 246 245 247 250 255 260 261 258 255 248 240 239 244 248 250 249 244 237 229 223 225 234 243 249 255 262 270 278 285 292 296 299 302 306 309 311 312 313 315 318 321 322 321 321 322 320 317 316
231 230 232 235 239 241 242 243 245 249 249 247 245 247 249 249 248 248 250 253 257 259 259 258 255 247 240 242 247 248 246 242 235 227 226 231 237 245 252 259 267 275 282 289 294 298 300 303 305 307 309 310 311 313 316 319 320 318 318 319 319 316 314
227 228 233 236 238 240 241 240 241 246 249 246 243 243 245 248 248 248 249 252 256 258 257 257 257 252 244 242 245 245 241 239 236 231 231 237 241 247 254 262 270 278 285 290 294 296 299 301 303 305 307 309 310 311 313 316 317 316 316 318 319 317 313
223 226 234 241 244 244 242 239 238 240 242 242 241 241 242 244 246 247 249 253 255 256 255 254 254 253 248 244 243 242 237 236 237 236 237 241 246 252 260 268 275 281 287 291 293 295 297 299 301 303 304 306 308 309 311 313 314 314 317 319 319 317 313
222 224 228 235 242 244 243 241 239 237 236 237 240 243 243 242 243 245 248 251 253 254 254 254 253 253 251 245 241 240 236 234 236 238 240 245 252 260 266 272 278 284 288 290 292 294 296 298 299 300 302 304 306 306 308 310 311 314 318 318 317 316 313
225 224 225 228 234 239 241 241 241 240 239 238 236 238 240 240 241 244 247 249 249 250 252 252 251 253 253 246 239 238 236 234 237 240 245 251 257 263 269 274 280 284 287 289 291 293 295 297 298 299 301 304 305 305 306 307 309 312 314 314 313 314 314
232 226 224 226 231 235 238 241 242 241 241 238 233 231 234 237 239 242 245 247 248 247 248 249 249 251 253 247 240 237 237 236 238 243 248 254 259 264 269 275 279 282 285 288 291 293 295 296 297 298 301 302 303 303 304 305 308 310 310 310 312 314 315
238 231 225 224 227 231 235 238 242 244 244 239 231 226 227 230 235 239 241 244 248 247 246 246 247 249 250 247 239 236 237 237 239 244 251 256 260 265 271 276 278 280 283 286 289 292 293 294 296 299 301 302 301 300 300 303 306 307 307 309 312 314 315
244 241 233 227 227 229 231 234 238 244 248 245 236 231 230 232 237 241 241 244 247 248 247 246 245 245 247 245 239 236 237 237 240 246 253 257 261 266 272 276 277 279 282 285 287 290 292 293 296 298 299 301 297 293 295 300 303 305 307 309 311 313 314
244 246 246 241 233 229 229 231 235 241 246 248 244 241 241 242 243 242 242 244 245 245 246 246 243 243 244 242 238 236 237 238 242 247 253 258 262 267 271 273 275 277 281 284 287 290 290 292 295 297 300 303 298 290 292 299 301 303 306 308 309 311 313
245 244 247 250 244 234 231 230 231 235 241 245 246 246 245 246 245 240 239 241 241 240 242 243 241 240 241 238 235 234 236 239 242 248 253 256 261 266 268 270 273 276 281 285 288 289 289 291 297 300 304 308 305 297 297 300 301 303 306 307 308 310 312
246 246 245 248 250 245 237 231 230 231 234 237 241 244 244 245 245 243 239 237 236 235 238 239 239 238 236 234 232 233 236 240 243 248 252 255 260 263 266 269 272 275 282 286 287 287 290 295 301 304 306 310 310 304 301 301 301 302 305 306 307 309 312
244 246 246 246 247 247 243 237 234 233 233 233 236 239 241 239 238 240 240 234 230 231 233 235 237 236 233 232 231 232 235 240 243 247 251 254 258 262 265 269 273 278 282 284 284 288 293 297 300 303 306 309 308 305 303 302 301 301 303 305 307 309 311
242 244 246 245 245 245 244 243 242 240 239 237 233 233 235 233 231 234 237 232 226 225 227 231 234 233 232 231 230 231 234 238 241 245 250 254 258 262 266 271 275 278 280 281 283 287 292 294 297 300 303 304 304 304 303 301 299 300 302 305 307 310 310
243 244 245 245 246 246 245 246 248 248 248 247 239 231 230 230 228 228 230 227 221 220 223 227 230 231 230 229 229 230 233 236 240 245 250 254 259 263 267 271 274 276 278 279 281 285 289 292 294 297 299 301 302 302 300 297 296 298 302 305 308 309 308
248 247 247 247 248 249 249 248 247 248 251 253 247 238 235 235 234 233 232 226 218 216 220 224 227 229 228 226 228 230 233 235 240 246 251 255 260 264 267 270 272 275 277 278 280 283 286 289 292 294 297 298 298 299 299 297 295 298 302 305 307 307 306
252 251 250 250 250 250 251 251 248 249 252 252 248 242 239 238 238 240 241 231 217 213 217 221 223 225 224 224 227 231 234 238 243 247 251 256 260 263 266 269 271 273 275 278 279 281 283 286 291 294 296 297 296 296 297 298 298 300 303 305 306 306 305
255 254 253 253 252 251 253 253 251 251 252 249 245 242 240 237 236 238 243 237 222 214 215 217 217 218 220 223 228 232 236 241 244 247 250 254 257 261 264 267 269 272 275 277 278 281 284 289 292 295 297 299 296 292 292 297 300 302 304 305 305 305 305
256 256 255 255 254 253 254 255 254 254 252 247 243 243 242 237 231 231 239 241 229 219 217 216 213 211 217 225 231 234 238 241 244 247 250 253 257 260 263 266 269 271 273 274 278 285 290 293 294 297 300 301 298 293 294 299 301 302 303 304 304 305 306
257 257 256 257 257 257 258 258 257 256 252 248 248 248 241 230 226 230 238 238 226 215 212 212 211 213 221 229 234 237 240 243 246 249 252 255 258 262 265 267 269 270 270 273 280 288 292 294 296 298 300 301 301 301 301 302 302 302 303 304 305 306 306